Location: Huntsville
(41.2590°N, 111.7678°W)
Time: 21:07:52
(UTC+00:00)

ISS - Pass Details

Date: 07 December 2021
Orbit: 413 x 422 km, 51.6° (Epoch: 25 January)

Event Time Altitude Azimuth Distance (km) Brightness Sun altitude
Rises 00:34:59 0° 309° (NW) 2,386 0.5 -7.1°
Reaches altitude 10° 00:37:10 10° 316° (NW) 1,516 -0.7 -7.4°
Maximum altitude 00:40:26 41° 29° (NNE) 622 -3.3 -8.0°
Drops below altitude 10° 00:43:39 10° 102° (ESE) 1,503 -1.4 -8.5°
Enters shadow 00:44:16 - 105° (ESE) 1,743 -1.1 -8.7°
